Darstellungsparameter: Aktuell verwendete Einstellungen:
Skalierung der Graphiken ... ?
xyx+y,   Skalierungsfaktor:      Skalierung: Modus: x, Faktor: 1
Darstellungszeitraum ... ?
Vom - - bis: - -   Zeitraum: 26.09.2010 - 30.09.2010
Min/Max/Avg-Anzeige ... ?
Zeige MMA aktuell
Zeige MMA Monat
Zeige MMA alles
Zeige --A aktuell
Zeige --A Monat
Zeige --A alles
Keine MMA-Anzeige
MMA:
Minimum Maximum Average (ber die Originaldaten)
MMA-Basis: 26.09.2010 - 30.09.2010
Quicknavigation für Darstellung... ?
Tage:      1T, 2T, 3T, 5T -1T -2T -3T -5T +1T +2T +3T +5T
Wochen: 1W, 2W, 3W -1W -2W -3W +1W +2W +3W
Monate: 1M, 3M, 6M -1M -3M -6M +1M +3M +6M
Jahre:    1J, 3J, 5J, 10J -1J -3J -5J -10J +1J +3J +5J +10J
Nutze für die Darstellung ... ?
Originaldaten oder Mittelwerte auf ...
Stundenbasis Tagesbasis Wochenbasis
Monatsbasis Jahresbasis      Datenbasis: Original-Daten
Darstellen als:
Statistik (Auto) Statistik J:M      Darstellung:
Zur Graphik,    zurück zur Übersicht aller Sensoren.
 
Tabellarische Datenbersicht: ?
 
Sensor: Nr:Datum:Temp:Abs-Feuchte:Windchill:Wind:
Aussen-T/F 1 26-09-2010 00:10:01 9.1 C 7.63 g/m*3 9.1 C 0 km/h
2 26-09-2010 00:22:02 9.5 C 7.92 g/m*3 9.5 C 0 km/h
3 26-09-2010 00:34:02 9.5 C 7.92 g/m*3 9.5 C 0 km/h
4 26-09-2010 00:46:02 9.6 C 7.79 g/m*3 9.6 C 0 km/h
5 26-09-2010 00:58:02 9.5 C 7.55 g/m*3 9.5 C 0 km/h
6 26-09-2010 01:10:02 9.5 C 7.37 g/m*3 9.5 C 0 km/h
7 26-09-2010 01:22:02 9.5 C 7.28 g/m*3 9.5 C 0 km/h
8 26-09-2010 01:34:02 9.4 C 7.15 g/m*3 9.4 C 0 km/h
9 26-09-2010 01:46:01 9.5 C 7.19 g/m*3 9.5 C 0 km/h
10 26-09-2010 01:58:01 9.5 C 7.19 g/m*3 9.5 C 0 km/h
11 26-09-2010 02:10:02 9.5 C 7.19 g/m*3 9.5 C 0 km/h
12 26-09-2010 02:22:01 9.5 C 7.1 g/m*3 9.5 C 0 km/h
13 26-09-2010 02:34:01 9.3 C 7.01 g/m*3 9.3 C 0 km/h
14 26-09-2010 02:46:01 9.4 C 6.96 g/m*3 9.4 C 0 km/h
15 26-09-2010 02:58:01 9.4 C 6.96 g/m*3 9.4 C 0 km/h
16 26-09-2010 03:10:01 9.3 C 6.92 g/m*3 9.3 C 0 km/h
17 26-09-2010 03:22:01 9.3 C 7.01 g/m*3 9.3 C 0 km/h
18 26-09-2010 03:34:01 9.3 C 7.1 g/m*3 9.3 C 0 km/h
19 26-09-2010 03:46:01 9.1 C 7.1 g/m*3 9.1 C 0 km/h
20 26-09-2010 03:58:01 9 C 7.23 g/m*3 9 C 0 km/h
21 26-09-2010 04:10:01 9 C 7.32 g/m*3 9 C 0 km/h
22 26-09-2010 04:22:01 9 C 7.23 g/m*3 9 C 0 km/h
23 26-09-2010 04:34:02 8.9 C 7.27 g/m*3 8.9 C 0 km/h
24 26-09-2010 04:46:01 8.7 C 7.26 g/m*3 8.7 C 0 km/h
25 26-09-2010 04:58:01 8.8 C 7.31 g/m*3 8.8 C 0 km/h
Sensor: Nr:Datum:Temp:Abs-Feuchte:Windchill:Wind:
Aussen-T/F 26 26-09-2010 05:10:02 9 C 7.32 g/m*3 9 C 0 km/h
27 26-09-2010 05:22:01 9.1 C 7.36 g/m*3 9.1 C 0 km/h
28 26-09-2010 05:34:01 9 C 7.32 g/m*3 9 C 0 km/h
29 26-09-2010 05:46:01 9 C 7.32 g/m*3 9 C 0 km/h
30 26-09-2010 05:58:01 9 C 7.32 g/m*3 9 C 0 km/h
31 26-09-2010 06:10:02 9 C 7.32 g/m*3 9 C 0 km/h
32 26-09-2010 06:22:01 9.1 C 7.36 g/m*3 9.1 C 0 km/h
33 26-09-2010 06:34:01 8.8 C 7.31 g/m*3 8.8 C 0 km/h
34 26-09-2010 06:46:01 8.8 C 7.4 g/m*3 8.8 C 0 km/h
35 26-09-2010 06:58:01 8.8 C 7.49 g/m*3 8.8 C 0 km/h
36 26-09-2010 07:10:01 8.8 C 7.49 g/m*3 8.8 C 0 km/h
37 26-09-2010 07:22:02 8.5 C 7.26 g/m*3 8.5 C 0 km/h
38 26-09-2010 07:34:01 8.6 C 7.39 g/m*3 8.6 C 0 km/h
39 26-09-2010 07:46:02 8.9 C 7.62 g/m*3 8.9 C 0 km/h
40 26-09-2010 07:58:02 9.2 C 7.5 g/m*3 9.2 C 0 km/h
41 26-09-2010 08:10:01 9.5 C 7.55 g/m*3 9.5 C 0 km/h
42 26-09-2010 08:22:02 9.6 C 7.33 g/m*3 9.6 C 0 km/h
43 26-09-2010 08:34:01 9.7 C 7.19 g/m*3 9.7 C 0 km/h
44 26-09-2010 08:46:02 9.7 C 7.19 g/m*3 9.7 C 0 km/h
45 26-09-2010 08:58:02 9.6 C 7.24 g/m*3 9.6 C 0 km/h
46 26-09-2010 09:10:01 9.4 C 7.24 g/m*3 9.4 C 0 km/h
47 26-09-2010 09:22:01 9.4 C 7.33 g/m*3 9.4 C 0 km/h
48 26-09-2010 09:34:02 10.5 C 7.57 g/m*3 10.5 C 0 km/h
49 26-09-2010 09:46:01 11 C 7.11 g/m*3 11 C 0 km/h
50 26-09-2010 09:58:01 11 C 6.61 g/m*3 11 C 0 km/h
Sensor: Nr:Datum:Temp:Abs-Feuchte:Windchill:Wind:
Aussen-T/F 51 26-09-2010 10:10:02 11 C 6.61 g/m*3 11 C 0 km/h
52 26-09-2010 10:22:01 11.6 C 6.76 g/m*3 11.6 C 0 km/h
53 26-09-2010 10:34:02 12 C 6.61 g/m*3 12 C 0 km/h
54 26-09-2010 10:46:01 11.9 C 6.78 g/m*3 11.9 C 0 km/h
55 26-09-2010 10:58:01 12.7 C 7.01 g/m*3 12.7 C 0 km/h
56 26-09-2010 11:10:02 12.9 C 6.42 g/m*3 12.9 C 0 km/h
57 26-09-2010 11:22:01 13.1 C 6.5 g/m*3 13.1 C 0 km/h
58 26-09-2010 11:34:02 13.2 C 6.66 g/m*3 13.2 C 0 km/h
59 26-09-2010 11:46:02 13.5 C 6.32 g/m*3 13.5 C 0 km/h
60 26-09-2010 11:58:02 13.4 C 6.28 g/m*3 13.4 C 0 km/h
61 26-09-2010 12:10:01 14 C 6.39 g/m*3 14 C 0 km/h
62 26-09-2010 12:22:02 14.3 C 6.51 g/m*3 14.3 C 0 km/h
63 26-09-2010 12:34:01 14.6 C 6.51 g/m*3 14.6 C 0 km/h
64 26-09-2010 12:46:01 15 C 6.28 g/m*3 15 C 0 km/h
65 26-09-2010 12:58:01 14.5 C 6.22 g/m*3 14.5 C 0 km/h
66 26-09-2010 13:10:02 14.5 C 6.34 g/m*3 14.5 C 0 km/h
67 26-09-2010 13:22:01 13.2 C 7.12 g/m*3 13.2 C 0 km/h
68 26-09-2010 13:34:01 12.6 C 7.63 g/m*3 12.6 C 0 km/h
69 26-09-2010 13:46:01 12.4 C 8.3 g/m*3 12.4 C 0 km/h
70 26-09-2010 13:58:01 12.3 C 8.25 g/m*3 12.3 C 0 km/h
71 26-09-2010 14:10:01 13.2 C 8.61 g/m*3 13.2 C 0 km/h
72 26-09-2010 14:22:01 13.4 C 8.37 g/m*3 13.4 C 0 km/h
73 26-09-2010 14:34:01 13.3 C 8.43 g/m*3 13.3 C 0 km/h
74 26-09-2010 14:46:01 13.2 C 8.15 g/m*3 13.2 C 0 km/h
75 26-09-2010 14:58:01 13.4 C 7.9 g/m*3 13.4 C 0 km/h
Sensor: Nr:Datum:Temp:Abs-Feuchte:Windchill:Wind:
Aussen-T/F 76 26-09-2010 15:10:01 13.6 C 7.89 g/m*3 13.6 C 0 km/h
77 26-09-2010 15:22:02 13.9 C 8.39 g/m*3 13.9 C 0 km/h
78 26-09-2010 15:34:01 14.4 C 8.16 g/m*3 14.4 C 0 km/h
79 26-09-2010 15:46:02 14.5 C 7.96 g/m*3 14.5 C 0 km/h
80 26-09-2010 15:58:02 14.5 C 8.21 g/m*3 14.5 C 0 km/h
81 26-09-2010 16:10:01 13.7 C 7.7 g/m*3 13.7 C 0 km/h
82 26-09-2010 16:22:02 13.8 C 7.51 g/m*3 13.8 C 0 km/h
83 26-09-2010 16:34:01 15.7 C 7.09 g/m*3 15.7 C 0 km/h
84 26-09-2010 16:46:01 15.5 C 6.21 g/m*3 15.5 C 0 km/h
85 26-09-2010 16:58:01 15.9 C 6.5 g/m*3 15.9 C 0 km/h
86 26-09-2010 17:10:01 16.1 C 6.44 g/m*3 16.1 C 0 km/h
87 26-09-2010 17:22:01 15.6 C 6.38 g/m*3 15.6 C 0 km/h
88 26-09-2010 17:34:02 15.4 C 6.7 g/m*3 15.4 C 0 km/h
89 26-09-2010 17:46:01 14.6 C 6.76 g/m*3 14.6 C 0 km/h
90 26-09-2010 17:58:01 14.2 C 6.72 g/m*3 14.2 C 0 km/h
91 26-09-2010 18:10:02 13.6 C 6.83 g/m*3 13.6 C 0 km/h
92 26-09-2010 18:22:01 13.1 C 6.85 g/m*3 13.1 C 0 km/h
93 26-09-2010 18:34:01 12.9 C 6.99 g/m*3 12.9 C 0 km/h
94 26-09-2010 18:46:01 12.7 C 7.01 g/m*3 12.7 C 0 km/h
95 26-09-2010 18:58:01 12.5 C 7.04 g/m*3 12.5 C 0 km/h
96 26-09-2010 19:10:02 12.4 C 7.1 g/m*3 12.4 C 0 km/h
97 26-09-2010 19:22:01 12.4 C 7.1 g/m*3 12.4 C 0 km/h
98 26-09-2010 19:34:01 12.2 C 7.01 g/m*3 12.2 C 0 km/h
99 26-09-2010 19:46:01 12.1 C 7.18 g/m*3 12.1 C 0 km/h
100 26-09-2010 19:58:01 12.1 C 7.08 g/m*3 12.1 C 0 km/h
Sensor: Nr:Datum:Temp:Abs-Feuchte:Windchill:Wind:
Aussen-T/F 101 26-09-2010 20:10:02 12 C 7.25 g/m*3 12 C 0 km/h
102 26-09-2010 20:22:01 11.9 C 7.31 g/m*3 11.9 C 0 km/h
103 26-09-2010 20:34:01 11.7 C 7.22 g/m*3 11.7 C 0 km/h
104 26-09-2010 20:46:01 11.7 C 7.22 g/m*3 11.7 C 0 km/h
105 26-09-2010 20:58:01 11.6 C 7.07 g/m*3 11.6 C 0 km/h
106 26-09-2010 21:10:01 11.6 C 7.07 g/m*3 11.6 C 0 km/h
107 26-09-2010 21:22:01 11.4 C 7.08 g/m*3 11.4 C 0 km/h
108 26-09-2010 21:34:01 11.2 C 7.1 g/m*3 11.2 C 0 km/h
109 26-09-2010 21:46:01 10.9 C 7.16 g/m*3 10.9 C 0 km/h
110 26-09-2010 21:58:01 10.7 C 7.17 g/m*3 10.7 C 0 km/h
111 26-09-2010 22:10:01 10.3 C 6.99 g/m*3 10.3 C 0 km/h
112 26-09-2010 22:22:01 10 C 7.05 g/m*3 10 C 0 km/h
113 26-09-2010 22:34:01 9.7 C 7.1 g/m*3 9.7 C 0 km/h
114 26-09-2010 22:47:04 9.3 C 7.1 g/m*3 9.3 C 0 km/h
115 26-09-2010 22:59:04 9.2 C 7.05 g/m*3 9.2 C 0 km/h
116 26-09-2010 23:11:04 9 C 7.05 g/m*3 9 C 0 km/h
117 26-09-2010 23:23:04 8.9 C 7.18 g/m*3 8.9 C 0 km/h
118 26-09-2010 23:35:04 8.9 C 7.27 g/m*3 8.9 C 0 km/h
119 26-09-2010 23:47:04 8.8 C 7.22 g/m*3 8.8 C 0 km/h
120 26-09-2010 23:59:04 8.6 C 7.13 g/m*3 8.6 C 0 km/h
121 27-09-2010 00:11:04 8.5 C 7.17 g/m*3 8.5 C 0 km/h
122 27-09-2010 00:23:04 8.2 C 7.03 g/m*3 8.2 C 0 km/h
123 27-09-2010 00:35:04 8.1 C 6.99 g/m*3 8.1 C 0 km/h
124 27-09-2010 00:47:04 7.9 C 6.98 g/m*3 7.9 C 0 km/h
125 27-09-2010 00:59:04 7.9 C 7.15 g/m*3 7.9 C 0 km/h
Sensor: Nr:Datum:Temp:Abs-Feuchte:Windchill:Wind:
Aussen-T/F 126 27-09-2010 01:11:04 7.8 C 7.18 g/m*3 7.8 C 0 km/h
127 27-09-2010 01:23:04 7.6 C 7.09 g/m*3 7.6 C 0 km/h
128 27-09-2010 01:35:04 7.5 C 7.04 g/m*3 7.5 C 0 km/h
129 27-09-2010 01:47:04 7.3 C 6.95 g/m*3 7.3 C 0 km/h
130 27-09-2010 01:59:04 7.1 C 6.94 g/m*3 7.1 C 0 km/h
131 27-09-2010 02:11:04 7 C 6.9 g/m*3 7 C 0 km/h
132 27-09-2010 02:23:04 7 C 6.9 g/m*3 7 C 0 km/h
133 27-09-2010 02:35:05 6.8 C 6.81 g/m*3 6.8 C 0 km/h
134 27-09-2010 02:47:05 6.7 C 6.84 g/m*3 6.7 C 0 km/h
135 27-09-2010 02:59:05 6.7 C 6.84 g/m*3 6.7 C 0 km/h
136 27-09-2010 03:11:05 6.5 C 6.75 g/m*3 6.5 C 0 km/h
137 27-09-2010 03:23:05 6.7 C 6.84 g/m*3 6.7 C 0 km/h
138 27-09-2010 03:35:05 6.4 C 6.71 g/m*3 6.4 C 0 km/h
139 27-09-2010 03:47:05 6.3 C 6.66 g/m*3 6.3 C 0 km/h
140 27-09-2010 03:59:05 6.4 C 6.78 g/m*3 6.4 C 0 km/h
141 27-09-2010 04:11:05 6.5 C 6.9 g/m*3 6.5 C 0 km/h
142 27-09-2010 04:23:05 6.4 C 6.85 g/m*3 6.4 C 0 km/h
143 27-09-2010 04:35:05 6.3 C 6.81 g/m*3 6.3 C 0 km/h
144 27-09-2010 04:47:05 6.1 C 6.72 g/m*3 6.1 C 0 km/h
145 27-09-2010 04:59:05 5.9 C 6.71 g/m*3 5.9 C 0 km/h
146 27-09-2010 05:11:05 5.9 C 6.71 g/m*3 5.9 C 0 km/h
147 27-09-2010 05:23:05 6.1 C 6.72 g/m*3 6.1 C 0 km/h
148 27-09-2010 05:35:05 6.3 C 6.81 g/m*3 6.3 C 0 km/h
149 27-09-2010 05:47:05 6.4 C 6.93 g/m*3 6.4 C 0 km/h
150 27-09-2010 05:59:05 6.5 C 6.97 g/m*3 6.5 C 0 km/h
Sensor: Nr:Datum:Temp:Abs-Feuchte:Windchill:Wind:
Aussen-T/F 151 27-09-2010 06:11:05 6.5 C 6.97 g/m*3 6.5 C 0 km/h
152 27-09-2010 06:23:05 6.4 C 6.93 g/m*3 6.4 C 0 km/h
153 27-09-2010 06:35:05 6.2 C 6.84 g/m*3 6.2 C 0 km/h
154 27-09-2010 06:47:06 6.2 C 6.84 g/m*3 6.2 C 0 km/h
155 27-09-2010 06:59:06 6.3 C 6.88 g/m*3 6.3 C 0 km/h
156 27-09-2010 07:11:04 6.3 C 6.88 g/m*3 6.3 C 0 km/h
157 27-09-2010 07:23:04 6.6 C 7.02 g/m*3 6.6 C 0 km/h
158 27-09-2010 07:35:04 6.7 C 7.14 g/m*3 6.7 C 0 km/h
159 27-09-2010 07:47:02 6.9 C 7.24 g/m*3 6.9 C 0 km/h
160 27-09-2010 07:59:02 7.2 C 7.38 g/m*3 7.2 C 0 km/h
161 27-09-2010 08:11:02 7.5 C 7.52 g/m*3 7.5 C 0 km/h
162 27-09-2010 08:23:02 7.5 C 7.52 g/m*3 7.5 C 0 km/h
163 27-09-2010 08:35:02 7.6 C 7.57 g/m*3 7.6 C 0 km/h
164 27-09-2010 08:47:02 7.8 C 7.67 g/m*3 7.8 C 0 km/h
165 27-09-2010 08:59:02 8.1 C 7.74 g/m*3 8.1 C 0 km/h
166 27-09-2010 09:11:02 8.5 C 7.94 g/m*3 8.5 C 0 km/h
167 27-09-2010 09:23:02 8.8 C 8.09 g/m*3 8.8 C 0 km/h
168 27-09-2010 09:35:02 9.2 C 8.22 g/m*3 9.2 C 0 km/h
169 27-09-2010 09:47:01 9.6 C 8.34 g/m*3 9.6 C 0 km/h
170 27-09-2010 09:59:01 10.1 C 8.42 g/m*3 10.1 C 0 km/h
171 27-09-2010 10:11:02 10.4 C 8.29 g/m*3 10.4 C 0 km/h
172 27-09-2010 10:23:01 10.4 C 7.9 g/m*3 10.4 C 0 km/h
173 27-09-2010 10:35:02 10.8 C 7.51 g/m*3 10.8 C 0 km/h
174 27-09-2010 10:47:01 11 C 7.11 g/m*3 11 C 0 km/h
175 27-09-2010 10:59:01 11.2 C 6.99 g/m*3 11.2 C 0 km/h
Sensor: Nr:Datum:Temp:Abs-Feuchte:Windchill:Wind:
Aussen-T/F 176 27-09-2010 11:11:02 11.7 C 7.01 g/m*3 11.7 C 0 km/h
177 27-09-2010 11:23:01 11.8 C 6.74 g/m*3 11.8 C 0 km/h
178 27-09-2010 11:35:02 12.2 C 6.8 g/m*3 12.2 C 0 km/h
179 27-09-2010 11:47:01 12 C 6.61 g/m*3 12 C 0 km/h
180 27-09-2010 11:59:01 12.2 C 6.8 g/m*3 12.2 C 0 km/h
181 27-09-2010 12:11:02 12.4 C 6.77 g/m*3 12.4 C 0 km/h
182 27-09-2010 12:23:01 12.8 C 6.94 g/m*3 12.8 C 0 km/h
183 27-09-2010 12:35:02 12.8 C 6.83 g/m*3 12.8 C 0 km/h
184 27-09-2010 12:47:01 13 C 6.8 g/m*3 13 C 0 km/h
185 27-09-2010 12:59:01 12.9 C 6.76 g/m*3 12.9 C 0 km/h
186 27-09-2010 13:11:02 13.1 C 6.73 g/m*3 13.1 C 0 km/h
187 27-09-2010 13:23:02 13.4 C 6.97 g/m*3 13.4 C 0 km/h
188 27-09-2010 13:35:01 13.6 C 6.71 g/m*3 13.6 C 0 km/h
189 27-09-2010 13:47:02 13.6 C 6.71 g/m*3 13.6 C 0 km/h
190 27-09-2010 13:59:02 13.7 C 6.51 g/m*3 13.7 C 0 km/h
191 27-09-2010 14:11:01 13.4 C 6.51 g/m*3 13.4 C 0 km/h
192 27-09-2010 14:23:02 13.3 C 6.7 g/m*3 13.3 C 0 km/h
193 27-09-2010 14:35:01 13.4 C 6.74 g/m*3 13.4 C 0 km/h
194 27-09-2010 14:47:03 13.2 C 6.77 g/m*3 13.2 C 0 km/h
195 27-09-2010 14:59:03 13 C 6.58 g/m*3 13 C 0 km/h
196 27-09-2010 15:11:02 13.4 C 6.74 g/m*3 13.4 C 0 km/h
197 27-09-2010 15:23:02 13.6 C 6.59 g/m*3 13.6 C 0 km/h
198 27-09-2010 15:35:02 13.6 C 6.47 g/m*3 13.6 C 0 km/h
199 27-09-2010 15:47:02 13.2 C 6.66 g/m*3 13.2 C 0 km/h
200 27-09-2010 15:59:02 13.2 C 6.77 g/m*3 13.2 C 0 km/h
Sensor: Nr:Datum:Temp:Abs-Feuchte:Windchill:Wind:
Aussen-T/F 201 27-09-2010 16:11:01 13.4 C 6.97 g/m*3 13.4 C 0 km/h
202 27-09-2010 16:23:02 13.4 C 7.44 g/m*3 13.4 C 0 km/h
203 27-09-2010 16:35:02 13.4 C 7.44 g/m*3 13.4 C 0 km/h
204 27-09-2010 16:47:01 13.3 C 7.05 g/m*3 13.3 C 0 km/h
205 27-09-2010 16:59:01 13.4 C 7.09 g/m*3 13.4 C 0 km/h
206 27-09-2010 17:11:01 13.2 C 7.58 g/m*3 13.2 C 0 km/h
207 27-09-2010 17:23:01 13 C 7.6 g/m*3 13 C 0 km/h
208 27-09-2010 17:35:02 12.8 C 7.73 g/m*3 12.8 C 0 km/h
209 27-09-2010 17:47:02 12.8 C 7.84 g/m*3 12.8 C 0 km/h
210 27-09-2010 17:59:02 12.7 C 7.68 g/m*3 12.7 C 0 km/h
211 27-09-2010 18:11:02 12.5 C 7.59 g/m*3 12.5 C 0 km/h
212 27-09-2010 18:23:01 12.3 C 7.71 g/m*3 12.3 C 0 km/h
213 27-09-2010 18:35:02 11.9 C 7.73 g/m*3 11.9 C 0 km/h
214 27-09-2010 18:47:02 11.7 C 7.74 g/m*3 11.7 C 0 km/h
215 27-09-2010 18:59:02 11.3 C 7.85 g/m*3 11.3 C 0 km/h
216 27-09-2010 19:11:02 10.8 C 8.01 g/m*3 10.8 C 0 km/h
217 27-09-2010 19:23:02 10.7 C 8.15 g/m*3 10.7 C 0 km/h
218 27-09-2010 19:35:02 10.5 C 8.15 g/m*3 10.5 C 0 km/h
219 27-09-2010 19:47:02 10.5 C 8.15 g/m*3 10.5 C 0 km/h
220 27-09-2010 19:59:02 10.4 C 8.19 g/m*3 10.4 C 0 km/h
221 27-09-2010 20:11:02 10.3 C 8.24 g/m*3 10.3 C 0 km/h
222 27-09-2010 20:23:02 10.3 C 8.33 g/m*3 10.3 C 0 km/h
223 27-09-2010 20:35:02 10.3 C 8.43 g/m*3 10.3 C 0 km/h
224 27-09-2010 20:47:01 10.3 C 8.43 g/m*3 10.3 C 0 km/h
225 27-09-2010 20:59:01 10.3 C 8.52 g/m*3 10.3 C 0 km/h
Sensor: Nr:Datum:Temp:Abs-Feuchte:Windchill:Wind:
Aussen-T/F 226 27-09-2010 21:11:02 10.4 C 8.58 g/m*3 10.4 C 0 km/h
227 27-09-2010 21:23:01 10.2 C 8.47 g/m*3 10.2 C 0 km/h
228 27-09-2010 21:35:02 10.3 C 8.52 g/m*3 10.3 C 0 km/h
229 27-09-2010 21:47:02 10.4 C 8.58 g/m*3 10.4 C 0 km/h
230 27-09-2010 21:59:03 10.4 C 8.58 g/m*3 10.4 C 0 km/h
231 27-09-2010 22:11:02 10.4 C 8.58 g/m*3 10.4 C 0 km/h
232 27-09-2010 22:24:10 10.4 C 8.67 g/m*3 10.4 C 0 km/h
233 27-09-2010 22:36:10 10.2 C 8.56 g/m*3 10.2 C 0 km/h
234 27-09-2010 22:48:10 10.2 C 8.56 g/m*3 10.2 C 0 km/h
235 27-09-2010 23:00:10 10.2 C 8.56 g/m*3 10.2 C 0 km/h
236 27-09-2010 23:12:10 10.2 C 8.66 g/m*3 10.2 C 0 km/h
237 27-09-2010 23:24:10 10.2 C 8.66 g/m*3 10.2 C 0 km/h
238 27-09-2010 23:36:10 10.1 C 8.61 g/m*3 10.1 C 0 km/h
239 27-09-2010 23:48:10 10.1 C 8.7 g/m*3 10.1 C 0 km/h
240 28-09-2010 00:00:10 10.1 C 8.7 g/m*3 10.1 C 0 km/h
241 28-09-2010 00:12:10 10 C 8.64 g/m*3 10 C 0 km/h
242 28-09-2010 00:24:10 10 C 8.64 g/m*3 10 C 0 km/h
243 28-09-2010 00:36:10 10 C 8.64 g/m*3 10 C 0 km/h
244 28-09-2010 00:48:10 9.9 C 8.78 g/m*3 9.9 C 0 km/h
245 28-09-2010 01:00:10 10 C 8.74 g/m*3 10 C 0 km/h
246 28-09-2010 01:12:11 10 C 8.74 g/m*3 10 C 0 km/h
247 28-09-2010 01:24:11 10 C 8.74 g/m*3 10 C 0 km/h
248 28-09-2010 01:36:11 10 C 8.74 g/m*3 10 C 0 km/h
249 28-09-2010 01:48:11 9.9 C 8.78 g/m*3 9.9 C 0 km/h
250 28-09-2010 02:00:11 9.9 C 8.78 g/m*3 9.9 C 0 km/h
Sensor: Nr:Datum:Temp:Abs-Feuchte:Windchill:Wind:
Aussen-T/F 251 28-09-2010 02:12:11 9.9 C 8.78 g/m*3 9.9 C 0 km/h
252 28-09-2010 02:24:11 9.9 C 8.78 g/m*3 9.9 C 0 km/h
253 28-09-2010 02:36:11 9.9 C 8.78 g/m*3 9.9 C 0 km/h
254 28-09-2010 02:48:11 9.9 C 8.78 g/m*3 9.9 C 0 km/h
255 28-09-2010 03:00:11 9.9 C 8.87 g/m*3 9.9 C 0 km/h
256 28-09-2010 03:12:11 9.9 C 8.87 g/m*3 9.9 C 0 km/h
257 28-09-2010 03:24:11 9.9 C 8.87 g/m*3 9.9 C 0 km/h
258 28-09-2010 03:36:12 9.9 C 8.87 g/m*3 9.9 C 0 km/h
259 28-09-2010 03:48:12 9.9 C 8.87 g/m*3 9.9 C 0 km/h
260 28-09-2010 04:00:12 9.9 C 8.87 g/m*3 9.9 C 0 km/h
261 28-09-2010 04:12:12 9.9 C 8.87 g/m*3 9.9 C 0 km/h
262 28-09-2010 04:24:12 9.9 C 8.87 g/m*3 9.9 C 0 km/h
263 28-09-2010 04:36:12 9.9 C 8.87 g/m*3 9.9 C 0 km/h
264 28-09-2010 04:48:12 10 C 8.83 g/m*3 10 C 0 km/h
265 28-09-2010 05:00:12 10 C 8.93 g/m*3 10 C 0 km/h
266 28-09-2010 05:12:12 10 C 8.93 g/m*3 10 C 0 km/h
267 28-09-2010 05:24:12 10 C 8.93 g/m*3 10 C 0 km/h
268 28-09-2010 05:36:12 10 C 8.93 g/m*3 10 C 0 km/h
269 28-09-2010 05:48:12 10 C 8.93 g/m*3 10 C 0 km/h
270 28-09-2010 06:00:12 10.1 C 8.98 g/m*3 10.1 C 0 km/h
271 28-09-2010 06:12:12 10.1 C 8.98 g/m*3 10.1 C 0 km/h
272 28-09-2010 06:24:12 10.1 C 8.98 g/m*3 10.1 C 0 km/h
273 28-09-2010 06:36:12 10.1 C 8.98 g/m*3 10.1 C 0 km/h
274 28-09-2010 06:48:12 10 C 8.93 g/m*3 10 C 0 km/h
275 28-09-2010 07:00:12 10 C 8.93 g/m*3 10 C 0 km/h
Sensor: Nr:Datum:Temp:Abs-Feuchte:Windchill:Wind:
Aussen-T/F 276 28-09-2010 07:12:12 10 C 8.93 g/m*3 10 C 0 km/h
277 28-09-2010 07:24:12 10 C 8.93 g/m*3 10 C 0 km/h
278 28-09-2010 07:36:13 10 C 8.93 g/m*3 10 C 0 km/h
279 28-09-2010 07:48:01 10 C 8.93 g/m*3 10 C 0 km/h
280 28-09-2010 08:00:01 10 C 8.93 g/m*3 10 C 0 km/h
281 28-09-2010 08:12:02 10 C 8.93 g/m*3 10 C 0 km/h
282 28-09-2010 08:24:02 10 C 8.93 g/m*3 10 C 0 km/h
283 28-09-2010 08:36:02 10.1 C 8.98 g/m*3 10.1 C 0 km/h
284 28-09-2010 08:48:03 10.1 C 8.98 g/m*3 10.1 C 0 km/h
285 28-09-2010 09:00:03 10.1 C 8.98 g/m*3 10.1 C 0 km/h
286 28-09-2010 09:12:03 10.2 C 9.04 g/m*3 10.2 C 0 km/h
287 28-09-2010 09:24:02 10.2 C 9.04 g/m*3 10.2 C 0 km/h
288 28-09-2010 09:36:02 10.3 C 9.1 g/m*3 10.3 C 0 km/h
289 28-09-2010 09:48:02 10.4 C 9.16 g/m*3 10.4 C 0 km/h
290 28-09-2010 10:00:02 10.4 C 9.16 g/m*3 10.4 C 0 km/h
291 28-09-2010 10:12:02 10.5 C 9.21 g/m*3 10.5 C 0 km/h
292 28-09-2010 10:24:01 10.5 C 9.21 g/m*3 10.5 C 0 km/h
293 28-09-2010 10:36:02 10.7 C 9.33 g/m*3 10.7 C 0 km/h
294 28-09-2010 10:48:02 10.8 C 9.39 g/m*3 10.8 C 0 km/h
295 28-09-2010 11:00:02 11 C 9.51 g/m*3 11 C 0 km/h
296 28-09-2010 11:12:02 11 C 9.51 g/m*3 11 C 0 km/h
297 28-09-2010 11:24:02 11.2 C 9.63 g/m*3 11.2 C 0 km/h
298 28-09-2010 11:36:02 11.3 C 9.69 g/m*3 11.3 C 0 km/h
299 28-09-2010 11:48:02 11.4 C 9.75 g/m*3 11.4 C 0 km/h
300 28-09-2010 12:00:02 11.4 C 9.75 g/m*3 11.4 C 0 km/h
Sensor: Nr:Datum:Temp:Abs-Feuchte:Windchill:Wind:
Aussen-T/F 301 28-09-2010 12:12:02 11.4 C 9.65 g/m*3 11.4 C 0 km/h
302 28-09-2010 12:24:02 11.4 C 9.65 g/m*3 11.4 C 0 km/h
303 28-09-2010 12:36:02 11.5 C 9.71 g/m*3 11.5 C 0 km/h
304 28-09-2010 12:48:02 11.7 C 9.83 g/m*3 11.7 C 0 km/h
305 28-09-2010 13:00:02 11.6 C 9.67 g/m*3 11.6 C 0 km/h
306 28-09-2010 13:12:02 11.6 C 9.67 g/m*3 11.6 C 0 km/h
307 28-09-2010 13:24:03 11.8 C 9.79 g/m*3 11.8 C 0 km/h
308 28-09-2010 13:36:02 11.8 C 9.68 g/m*3 11.8 C 0 km/h
309 28-09-2010 13:48:03 11.9 C 9.74 g/m*3 11.9 C 0 km/h
310 28-09-2010 14:00:03 11.9 C 9.74 g/m*3 11.9 C 0 km/h
311 28-09-2010 14:12:02 11.8 C 9.68 g/m*3 11.8 C 0 km/h
312 28-09-2010 14:24:02 11.7 C 9.62 g/m*3 11.7 C 0 km/h
313 28-09-2010 14:36:02 11.7 C 9.62 g/m*3 11.7 C 0 km/h
314 28-09-2010 14:48:02 11.7 C 9.62 g/m*3 11.7 C 0 km/h
315 28-09-2010 15:00:02 11.7 C 9.62 g/m*3 11.7 C 0 km/h
316 28-09-2010 15:12:02 11.7 C 9.73 g/m*3 11.7 C 0 km/h
317 28-09-2010 15:24:02 11.7 C 9.73 g/m*3 11.7 C 0 km/h
318 28-09-2010 15:36:02 11.8 C 9.79 g/m*3 11.8 C 0 km/h
319 28-09-2010 15:48:02 11.8 C 9.79 g/m*3 11.8 C 0 km/h
320 28-09-2010 16:00:02 11.8 C 9.79 g/m*3 11.8 C 0 km/h
321 28-09-2010 16:12:01 11.8 C 9.79 g/m*3 11.8 C 0 km/h
322 28-09-2010 16:24:01 11.8 C 9.79 g/m*3 11.8 C 0 km/h
323 28-09-2010 16:36:02 11.9 C 9.96 g/m*3 11.9 C 0 km/h
324 28-09-2010 16:48:02 11.9 C 9.96 g/m*3 11.9 C 0 km/h
325 28-09-2010 17:00:02 11.9 C 9.96 g/m*3 11.9 C 0 km/h
Sensor: Nr:Datum:Temp:Abs-Feuchte:Windchill:Wind:
Aussen-T/F 326 28-09-2010 17:12:02 12 C 10.02 g/m*3 12 C 0 km/h
327 28-09-2010 17:24:02 12 C 10.02 g/m*3 12 C 0 km/h
328 28-09-2010 17:36:02 12 C 10.02 g/m*3 12 C 0 km/h
329 28-09-2010 17:48:02 12 C 10.02 g/m*3 12 C 0 km/h
330 28-09-2010 18:00:02 11.9 C 9.96 g/m*3 11.9 C 0 km/h
331 28-09-2010 18:12:02 11.9 C 9.96 g/m*3 11.9 C 0 km/h
332 28-09-2010 18:24:02 11.9 C 10.06 g/m*3 11.9 C 0 km/h
333 28-09-2010 18:36:02 11.8 C 10 g/m*3 11.8 C 0 km/h
334 28-09-2010 18:48:01 11.8 C 10 g/m*3 11.8 C 0 km/h
335 28-09-2010 19:00:01 11.8 C 10 g/m*3 11.8 C 0 km/h
336 28-09-2010 19:12:02 11.7 C 9.94 g/m*3 11.7 C 0 km/h
337 28-09-2010 19:24:01 11.7 C 9.94 g/m*3 11.7 C 0 km/h
338 28-09-2010 19:36:01 11.7 C 9.94 g/m*3 11.7 C 0 km/h
339 28-09-2010 19:48:01 11.7 C 9.94 g/m*3 11.7 C 0 km/h
340 28-09-2010 20:00:01 11.6 C 9.87 g/m*3 11.6 C 0 km/h
341 28-09-2010 20:12:02 11.6 C 9.87 g/m*3 11.6 C 0 km/h
342 28-09-2010 20:24:02 11.6 C 9.87 g/m*3 11.6 C 0 km/h
343 28-09-2010 20:36:01 11.6 C 9.87 g/m*3 11.6 C 0 km/h
344 28-09-2010 20:48:01 11.6 C 9.87 g/m*3 11.6 C 0 km/h
345 28-09-2010 21:00:01 11.6 C 9.87 g/m*3 11.6 C 0 km/h
346 28-09-2010 21:12:01 11.6 C 9.87 g/m*3 11.6 C 0 km/h
347 28-09-2010 21:24:02 11.6 C 9.87 g/m*3 11.6 C 0 km/h
348 28-09-2010 21:36:01 11.5 C 9.81 g/m*3 11.5 C 0 km/h
349 28-09-2010 21:48:03 11.6 C 9.87 g/m*3 11.6 C 0 km/h
350 28-09-2010 22:00:03 11.6 C 9.87 g/m*3 11.6 C 0 km/h
Sensor: Nr:Datum:Temp:Abs-Feuchte:Windchill:Wind:
Aussen-T/F 351 28-09-2010 22:12:02 11.6 C 9.87 g/m*3 11.6 C 0 km/h
352 28-09-2010 22:24:03 11.6 C 9.87 g/m*3 11.6 C 0 km/h
353 28-09-2010 22:36:02 11.7 C 9.94 g/m*3 11.7 C 0 km/h
354 28-09-2010 22:48:03 11.6 C 9.87 g/m*3 11.6 C 0 km/h
355 28-09-2010 23:00:03 11.6 C 9.87 g/m*3 11.6 C 0 km/h
356 28-09-2010 23:12:02 11.6 C 9.87 g/m*3 11.6 C 0 km/h
357 28-09-2010 23:24:02 11.6 C 9.87 g/m*3 11.6 C 0 km/h
358 28-09-2010 23:36:02 11.6 C 9.87 g/m*3 11.6 C 0 km/h
359 28-09-2010 23:48:02 11.6 C 9.87 g/m*3 11.6 C 0 km/h
360 29-09-2010 00:00:02 11.6 C 9.87 g/m*3 11.6 C 0 km/h
361 29-09-2010 00:12:02 11.7 C 9.94 g/m*3 11.7 C 0 km/h
362 29-09-2010 00:24:02 11.6 C 9.87 g/m*3 11.6 C 0 km/h
363 29-09-2010 00:36:02 11.7 C 9.94 g/m*3 11.7 C 0 km/h
364 29-09-2010 00:48:02 11.6 C 9.87 g/m*3 11.6 C 0 km/h
365 29-09-2010 01:00:02 11.7 C 9.94 g/m*3 11.7 C 0 km/h
366 29-09-2010 01:12:03 11.6 C 9.87 g/m*3 11.6 C 0 km/h
367 29-09-2010 01:24:02 11.6 C 9.87 g/m*3 11.6 C 0 km/h
368 29-09-2010 01:36:02 11.6 C 9.87 g/m*3 11.6 C 0 km/h
369 29-09-2010 01:48:01 11.6 C 9.87 g/m*3 11.6 C 0 km/h
370 29-09-2010 02:00:01 11.6 C 9.87 g/m*3 11.6 C 0 km/h
371 29-09-2010 02:12:02 11.6 C 9.87 g/m*3 11.6 C 0 km/h
372 29-09-2010 02:24:01 11.5 C 9.81 g/m*3 11.5 C 0 km/h
373 29-09-2010 02:36:02 11.5 C 9.81 g/m*3 11.5 C 0 km/h
374 29-09-2010 02:48:01 11.6 C 9.87 g/m*3 11.6 C 0 km/h
375 29-09-2010 03:00:01 11.4 C 9.75 g/m*3 11.4 C 0 km/h
Sensor: Nr:Datum:Temp:Abs-Feuchte:Windchill:Wind:
Aussen-T/F 376 29-09-2010 03:12:01 11.3 C 9.69 g/m*3 11.3 C 0 km/h
377 29-09-2010 03:24:02 11.4 C 9.75 g/m*3 11.4 C 0 km/h
378 29-09-2010 03:36:01 11.7 C 9.94 g/m*3 11.7 C 0 km/h
379 29-09-2010 03:48:01 11.6 C 9.87 g/m*3 11.6 C 0 km/h
380 29-09-2010 04:00:01 11.6 C 9.87 g/m*3 11.6 C 0 km/h
381 29-09-2010 04:12:02 11.6 C 9.87 g/m*3 11.6 C 0 km/h
382 29-09-2010 04:24:01 11.6 C 9.87 g/m*3 11.6 C 0 km/h
383 29-09-2010 04:36:01 11.3 C 9.69 g/m*3 11.3 C 0 km/h
384 29-09-2010 04:48:01 11.3 C 9.69 g/m*3 11.3 C 0 km/h
385 29-09-2010 05:00:01 11.4 C 9.75 g/m*3 11.4 C 0 km/h
386 29-09-2010 05:12:02 11.4 C 9.75 g/m*3 11.4 C 0 km/h
387 29-09-2010 05:24:01 11.4 C 9.75 g/m*3 11.4 C 0 km/h
388 29-09-2010 05:36:01 11.4 C 9.75 g/m*3 11.4 C 0 km/h
389 29-09-2010 05:48:01 11.4 C 9.75 g/m*3 11.4 C 0 km/h
390 29-09-2010 06:00:01 11.7 C 9.94 g/m*3 11.7 C 0 km/h
391 29-09-2010 06:12:01 11.6 C 9.87 g/m*3 11.6 C 0 km/h
392 29-09-2010 06:24:02 11.5 C 9.81 g/m*3 11.5 C 0 km/h
393 29-09-2010 06:36:01 11.5 C 9.81 g/m*3 11.5 C 0 km/h
394 29-09-2010 06:48:02 11.3 C 9.69 g/m*3 11.3 C 0 km/h
395 29-09-2010 07:00:02 11.1 C 9.57 g/m*3 11.1 C 0 km/h
396 29-09-2010 07:12:01 10.8 C 9.39 g/m*3 10.8 C 0 km/h
397 29-09-2010 07:24:02 11 C 9.51 g/m*3 11 C 0 km/h
398 29-09-2010 07:36:01 11.2 C 9.63 g/m*3 11.2 C 0 km/h
399 29-09-2010 07:48:02 11.1 C 9.57 g/m*3 11.1 C 0 km/h
400 29-09-2010 08:00:02 11 C 9.51 g/m*3 11 C 0 km/h
Sensor: Nr:Datum:Temp:Abs-Feuchte:Windchill:Wind:
Aussen-T/F 401 29-09-2010 08:12:01 11.2 C 9.63 g/m*3 11.2 C 0 km/h
402 29-09-2010 08:24:01 11.2 C 9.63 g/m*3 11.2 C 0 km/h
403 29-09-2010 08:36:01 11.1 C 9.57 g/m*3 11.1 C 0 km/h
404 29-09-2010 08:48:02 11.4 C 9.75 g/m*3 11.4 C 0 km/h
405 29-09-2010 09:00:02 11.6 C 9.87 g/m*3 11.6 C 0 km/h
406 29-09-2010 09:12:01 11.2 C 9.53 g/m*3 11.2 C 0 km/h
407 29-09-2010 09:24:01 10.8 C 9.19 g/m*3 10.8 C 0 km/h
408 29-09-2010 09:36:02 11.7 C 9.62 g/m*3 11.7 C 0 km/h
409 29-09-2010 09:48:01 11.9 C 9.64 g/m*3 11.9 C 0 km/h
410 29-09-2010 10:00:01 12.1 C 9.22 g/m*3 12.1 C 0 km/h
411 29-09-2010 10:12:02 12.5 C 8.91 g/m*3 12.5 C 0 km/h
412 29-09-2010 10:24:01 12.9 C 8.79 g/m*3 12.9 C 0 km/h
413 29-09-2010 10:36:02 13.4 C 8.95 g/m*3 13.4 C 0 km/h
414 29-09-2010 10:48:01 13.7 C 9 g/m*3 13.7 C 0 km/h
415 29-09-2010 11:00:01 13.8 C 8.94 g/m*3 13.8 C 0 km/h
416 29-09-2010 11:12:02 13.7 C 8.53 g/m*3 13.7 C 0 km/h
417 29-09-2010 11:24:01 13.8 C 8.46 g/m*3 13.8 C 0 km/h
418 29-09-2010 11:36:01 14.1 C 8.01 g/m*3 14.1 C 0 km/h
419 29-09-2010 11:48:01 14.4 C 8.16 g/m*3 14.4 C 0 km/h
420 29-09-2010 12:00:01 14.5 C 8.21 g/m*3 14.5 C 0 km/h
421 29-09-2010 12:12:01 14.6 C 8.01 g/m*3 14.6 C 0 km/h
422 29-09-2010 12:24:01 14.1 C 7.52 g/m*3 14.1 C 0 km/h
423 29-09-2010 12:36:01 14 C 8.08 g/m*3 14 C 0 km/h
424 29-09-2010 12:48:01 14.8 C 8.36 g/m*3 14.8 C 0 km/h
425 29-09-2010 13:00:01 15.4 C 8.15 g/m*3 15.4 C 0 km/h
Sensor: Nr:Datum:Temp:Abs-Feuchte:Windchill:Wind:
Aussen-T/F 426 29-09-2010 13:12:01 15.7 C 7.89 g/m*3 15.7 C 0 km/h
427 29-09-2010 13:24:02 15.8 C 7.81 g/m*3 15.8 C 0 km/h
428 29-09-2010 13:36:01 15.9 C 7.99 g/m*3 15.9 C 0 km/h
429 29-09-2010 13:48:02 15.9 C 7.58 g/m*3 15.9 C 0 km/h
430 29-09-2010 14:00:02 16.3 C 7.35 g/m*3 16.3 C 0 km/h
431 29-09-2010 14:12:01 15.6 C 7.58 g/m*3 15.6 C 0 km/h
432 29-09-2010 14:24:02 15.8 C 7.94 g/m*3 15.8 C 0 km/h
433 29-09-2010 14:36:01 17.4 C 7.85 g/m*3 17.4 C 0 km/h
434 29-09-2010 14:48:02 19 C 7.33 g/m*3 19 C 0 km/h
435 29-09-2010 15:00:02 18.8 C 6.76 g/m*3 18.8 C 0 km/h
436 29-09-2010 15:12:01 18.8 C 6.93 g/m*3 18.8 C 0 km/h
437 29-09-2010 15:24:01 18.9 C 6.97 g/m*3 18.9 C 0 km/h
438 29-09-2010 15:36:02 19.6 C 6.92 g/m*3 19.6 C 0 km/h
439 29-09-2010 15:48:01 19.7 C 6.79 g/m*3 19.7 C 0 km/h
440 29-09-2010 16:00:02 18.8 C 7.41 g/m*3 18.8 C 0 km/h
441 29-09-2010 16:12:01 18.1 C 7.26 g/m*3 18.1 C 0 km/h
442 29-09-2010 16:24:01 18.1 C 7.57 g/m*3 18.1 C 0 km/h
443 29-09-2010 16:36:02 17.6 C 7.95 g/m*3 17.6 C 0 km/h
444 29-09-2010 16:48:01 18.1 C 7.88 g/m*3 18.1 C 0 km/h
445 29-09-2010 17:00:02 19 C 7.33 g/m*3 19 C 0 km/h
446 29-09-2010 17:12:01 19.4 C 7.01 g/m*3 19.4 C 0 km/h
447 29-09-2010 17:24:01 18.6 C 7.16 g/m*3 18.6 C 0 km/h
448 29-09-2010 17:36:02 17.6 C 7.95 g/m*3 17.6 C 0 km/h
449 29-09-2010 17:48:01 16.9 C 8.05 g/m*3 16.9 C 0 km/h
450 29-09-2010 18:00:01 15.9 C 7.58 g/m*3 15.9 C 0 km/h
Sensor: Nr:Datum:Temp:Abs-Feuchte:Windchill:Wind:
Aussen-T/F 451 29-09-2010 18:12:04 15.2 C 7.92 g/m*3 15.2 C 0 km/h
452 29-09-2010 18:24:02 14.4 C 7.91 g/m*3 14.4 C 0 km/h
453 29-09-2010 18:36:02 14 C 7.84 g/m*3 14 C 0 km/h
454 29-09-2010 18:48:01 13.6 C 7.89 g/m*3 13.6 C 0 km/h
455 29-09-2010 19:00:01 13.2 C 7.81 g/m*3 13.2 C 0 km/h
456 29-09-2010 19:12:01 13.1 C 7.76 g/m*3 13.1 C 0 km/h
457 29-09-2010 19:24:01 13 C 7.71 g/m*3 13 C 0 km/h
458 29-09-2010 19:36:02 13 C 7.6 g/m*3 13 C 0 km/h
459 29-09-2010 19:48:01 13.1 C 7.53 g/m*3 13.1 C 0 km/h
460 29-09-2010 20:00:01 13.3 C 7.63 g/m*3 13.3 C 0 km/h
461 29-09-2010 20:12:02 13.2 C 7.81 g/m*3 13.2 C 0 km/h
462 29-09-2010 20:24:01 13.2 C 7.81 g/m*3 13.2 C 0 km/h
463 29-09-2010 20:36:02 13 C 7.6 g/m*3 13 C 0 km/h
464 29-09-2010 20:48:01 12.9 C 7.66 g/m*3 12.9 C 0 km/h
465 29-09-2010 21:00:01 12.9 C 7.66 g/m*3 12.9 C 0 km/h
466 29-09-2010 21:12:02 12.8 C 7.84 g/m*3 12.8 C 0 km/h
467 29-09-2010 21:24:01 12.4 C 7.98 g/m*3 12.4 C 0 km/h
468 29-09-2010 21:38:05 12.2 C 8.09 g/m*3 12.2 C 0 km/h
469 29-09-2010 21:50:05 12.2 C 8.09 g/m*3 12.2 C 0 km/h
470 29-09-2010 22:02:05 12.3 C 8.25 g/m*3 12.3 C 0 km/h
471 29-09-2010 22:14:05 12.4 C 8.3 g/m*3 12.4 C 0 km/h
472 29-09-2010 22:26:05 12.4 C 8.41 g/m*3 12.4 C 0 km/h
473 29-09-2010 22:38:06 12.5 C 8.47 g/m*3 12.5 C 0 km/h
474 29-09-2010 22:50:06 12.3 C 8.36 g/m*3 12.3 C 0 km/h
475 29-09-2010 23:02:06 12 C 8.21 g/m*3 12 C 0 km/h
Sensor: Nr:Datum:Temp:Abs-Feuchte:Windchill:Wind:
Aussen-T/F 476 29-09-2010 23:14:06 11.8 C 8.31 g/m*3 11.8 C 0 km/h
477 29-09-2010 23:26:06 11.8 C 8.42 g/m*3 11.8 C 0 km/h
478 29-09-2010 23:38:06 12 C 8.31 g/m*3 12 C 0 km/h
479 29-09-2010 23:50:06 12.2 C 8.42 g/m*3 12.2 C 0 km/h
480 30-09-2010 00:02:06 12.4 C 8.52 g/m*3 12.4 C 0 km/h
481 30-09-2010 00:14:06 12.3 C 8.47 g/m*3 12.3 C 0 km/h
482 30-09-2010 00:26:06 12.1 C 8.36 g/m*3 12.1 C 0 km/h
483 30-09-2010 00:38:06 12.1 C 8.47 g/m*3 12.1 C 0 km/h
484 30-09-2010 00:50:06 11.9 C 8.37 g/m*3 11.9 C 0 km/h
485 30-09-2010 01:02:06 11.7 C 8.37 g/m*3 11.7 C 0 km/h
486 30-09-2010 01:14:06 11.8 C 7.89 g/m*3 11.8 C 0 km/h
487 30-09-2010 01:26:06 11.8 C 7.79 g/m*3 11.8 C 0 km/h
488 30-09-2010 01:38:06 12 C 7.46 g/m*3 12 C 0 km/h
489 30-09-2010 01:50:06 12 C 7.25 g/m*3 12 C 0 km/h
490 30-09-2010 02:02:06 12.1 C 7.4 g/m*3 12.1 C 0 km/h
491 30-09-2010 02:14:06 11.5 C 7.54 g/m*3 11.5 C 0 km/h
492 30-09-2010 02:26:06 11.4 C 7.7 g/m*3 11.4 C 0 km/h
493 30-09-2010 02:38:06 11.1 C 7.66 g/m*3 11.1 C 0 km/h
494 30-09-2010 02:50:07 11.2 C 7.8 g/m*3 11.2 C 0 km/h
495 30-09-2010 03:02:07 11.3 C 7.85 g/m*3 11.3 C 0 km/h
496 30-09-2010 03:14:07 11.2 C 7.91 g/m*3 11.2 C 0 km/h
497 30-09-2010 03:26:07 11 C 7.81 g/m*3 11 C 0 km/h
498 30-09-2010 03:38:07 11.1 C 7.86 g/m*3 11.1 C 0 km/h
499 30-09-2010 03:50:07 11.2 C 7.91 g/m*3 11.2 C 0 km/h
500 30-09-2010 04:02:07 11.3 C 7.96 g/m*3 11.3 C 0 km/h
Sensor: Nr:Datum:Temp:Abs-Feuchte:Windchill:Wind:
Aussen-T/F 501 30-09-2010 04:14:07 11.2 C 7.91 g/m*3 11.2 C 0 km/h
502 30-09-2010 04:26:07 11 C 7.81 g/m*3 11 C 0 km/h
503 30-09-2010 04:38:07 10.8 C 7.81 g/m*3 10.8 C 0 km/h
504 30-09-2010 04:50:07 10.8 C 7.91 g/m*3 10.8 C 0 km/h
505 30-09-2010 05:02:07 10.8 C 7.91 g/m*3 10.8 C 0 km/h
506 30-09-2010 05:14:07 10.8 C 7.91 g/m*3 10.8 C 0 km/h
507 30-09-2010 05:26:07 10.8 C 7.81 g/m*3 10.8 C 0 km/h
508 30-09-2010 05:38:07 10.7 C 7.76 g/m*3 10.7 C 0 km/h
509 30-09-2010 05:50:07 10.7 C 7.56 g/m*3 10.7 C 0 km/h
510 30-09-2010 06:02:07 10.8 C 7.31 g/m*3 10.8 C 0 km/h
511 30-09-2010 06:14:07 10.8 C 7.31 g/m*3 10.8 C 0 km/h
512 30-09-2010 06:26:07 10.7 C 7.27 g/m*3 10.7 C 0 km/h
513 30-09-2010 06:38:05 10.6 C 7.32 g/m*3 10.6 C 0 km/h
514 30-09-2010 06:50:02 10.6 C 7.42 g/m*3 10.6 C 0 km/h
515 30-09-2010 07:02:02 10.7 C 7.56 g/m*3 10.7 C 0 km/h
516 30-09-2010 07:14:02 10.7 C 7.66 g/m*3 10.7 C 0 km/h
517 30-09-2010 07:26:02 10.6 C 7.61 g/m*3 10.6 C 0 km/h
518 30-09-2010 07:38:02 10.6 C 7.71 g/m*3 10.6 C 0 km/h
519 30-09-2010 07:50:01 10.7 C 7.76 g/m*3 10.7 C 0 km/h
520 30-09-2010 08:02:01 10.7 C 7.66 g/m*3 10.7 C 0 km/h
521 30-09-2010 08:14:02 10.9 C 7.76 g/m*3 10.9 C 0 km/h
522 30-09-2010 08:26:01 10.9 C 7.76 g/m*3 10.9 C 0 km/h
523 30-09-2010 08:38:01 11 C 7.81 g/m*3 11 C 0 km/h
524 30-09-2010 08:50:01 11 C 7.81 g/m*3 11 C 0 km/h
525 30-09-2010 09:02:01 11.2 C 7.91 g/m*3 11.2 C 0 km/h
Sensor: Nr:Datum:Temp:Abs-Feuchte:Windchill:Wind:
Aussen-T/F 526 30-09-2010 09:14:01 11.4 C 8.01 g/m*3 11.4 C 0 km/h
527 30-09-2010 09:26:01 11.4 C 7.8 g/m*3 11.4 C 0 km/h
528 30-09-2010 09:38:01 11.5 C 7.75 g/m*3 11.5 C 0 km/h
529 30-09-2010 09:50:02 11.5 C 7.85 g/m*3 11.5 C 0 km/h
530 30-09-2010 10:02:02 11.4 C 8.01 g/m*3 11.4 C 0 km/h
531 30-09-2010 10:14:02 11.4 C 8.11 g/m*3 11.4 C 0 km/h
532 30-09-2010 10:26:03 11.7 C 8.37 g/m*3 11.7 C 0 km/h
533 30-09-2010 10:38:02 11.8 C 8.42 g/m*3 11.8 C 0 km/h
534 30-09-2010 10:50:02 11.9 C 8.47 g/m*3 11.9 C 0 km/h
535 30-09-2010 11:02:02 12 C 8.42 g/m*3 12 C 0 km/h
536 30-09-2010 11:14:02 12 C 8.42 g/m*3 12 C 0 km/h
537 30-09-2010 11:26:02 11.8 C 8.42 g/m*3 11.8 C 0 km/h
538 30-09-2010 11:38:01 11.7 C 8.47 g/m*3 11.7 C 0 km/h
539 30-09-2010 11:50:02 11.8 C 8.63 g/m*3 11.8 C 0 km/h
540 30-09-2010 12:02:01 11.9 C 8.79 g/m*3 11.9 C 0 km/h
541 30-09-2010 12:14:01 11.9 C 8.9 g/m*3 11.9 C 0 km/h
542 30-09-2010 12:26:02 12 C 8.95 g/m*3 12 C 0 km/h
543 30-09-2010 12:38:02 12.1 C 9.01 g/m*3 12.1 C 0 km/h
544 30-09-2010 12:50:02 12 C 9.06 g/m*3 12 C 0 km/h
545 30-09-2010 13:02:02 12.4 C 9.4 g/m*3 12.4 C 0 km/h
546 30-09-2010 13:14:02 12.6 C 9.51 g/m*3 12.6 C 0 km/h
547 30-09-2010 13:26:02 12.6 C 9.51 g/m*3 12.6 C 0 km/h
548 30-09-2010 13:38:02 12.6 C 9.62 g/m*3 12.6 C 0 km/h
549 30-09-2010 13:50:01 12.7 C 9.68 g/m*3 12.7 C 0 km/h
550 30-09-2010 14:02:02 12.9 C 9.81 g/m*3 12.9 C 0 km/h
Sensor: Nr:Datum:Temp:Abs-Feuchte:Windchill:Wind:
Aussen-T/F 551 30-09-2010 14:14:02 13 C 9.87 g/m*3 13 C 0 km/h
552 30-09-2010 14:26:01 12.8 C 9.86 g/m*3 12.8 C 0 km/h
553 30-09-2010 14:38:01 12.9 C 9.92 g/m*3 12.9 C 0 km/h
554 30-09-2010 14:50:01 13.1 C 10.04 g/m*3 13.1 C 0 km/h
555 30-09-2010 15:02:02 13.2 C 10.1 g/m*3 13.2 C 0 km/h
556 30-09-2010 15:14:03 13.2 C 10.1 g/m*3 13.2 C 0 km/h
557 30-09-2010 15:26:01 13.4 C 10.23 g/m*3 13.4 C 0 km/h
558 30-09-2010 15:38:01 13.3 C 10.17 g/m*3 13.3 C 0 km/h
559 30-09-2010 15:50:01 13.2 C 9.99 g/m*3 13.2 C 0 km/h
560 30-09-2010 16:02:01 13.5 C 10.29 g/m*3 13.5 C 0 km/h
561 30-09-2010 16:14:01 13.5 C 10.29 g/m*3 13.5 C 0 km/h
562 30-09-2010 16:26:02 13.6 C 10.24 g/m*3 13.6 C 0 km/h
563 30-09-2010 16:38:01 13.3 C 10.05 g/m*3 13.3 C 0 km/h
564 30-09-2010 16:50:03 13.1 C 9.93 g/m*3 13.1 C 0 km/h
565 30-09-2010 17:02:02 13.1 C 9.93 g/m*3 13.1 C 0 km/h
566 30-09-2010 17:14:02 13 C 9.98 g/m*3 13 C 0 km/h
567 30-09-2010 17:26:02 13 C 9.98 g/m*3 13 C 0 km/h
568 30-09-2010 17:38:02 12.9 C 10.03 g/m*3 12.9 C 0 km/h
569 30-09-2010 17:50:02 12.8 C 9.97 g/m*3 12.8 C 0 km/h
570 30-09-2010 18:02:02 12.7 C 9.91 g/m*3 12.7 C 0 km/h
571 30-09-2010 18:14:02 12.5 C 9.78 g/m*3 12.5 C 0 km/h
572 30-09-2010 18:26:02 12.5 C 9.78 g/m*3 12.5 C 0 km/h
573 30-09-2010 18:38:02 12.4 C 9.83 g/m*3 12.4 C 0 km/h
574 30-09-2010 18:50:01 12.3 C 9.77 g/m*3 12.3 C 0 km/h
575 30-09-2010 19:02:02 12.2 C 9.71 g/m*3 12.2 C 0 km/h
Sensor: Nr:Datum:Temp:Abs-Feuchte:Windchill:Wind:
Aussen-T/F 576 30-09-2010 19:14:02 12.1 C 9.76 g/m*3 12.1 C 0 km/h
577 30-09-2010 19:26:02 12.1 C 9.76 g/m*3 12.1 C 0 km/h
578 30-09-2010 19:38:02 12.2 C 9.82 g/m*3 12.2 C 0 km/h
579 30-09-2010 19:50:02 12.1 C 9.87 g/m*3 12.1 C 0 km/h
580 30-09-2010 20:02:02 12.2 C 9.93 g/m*3 12.2 C 0 km/h
581 30-09-2010 20:14:02 12.2 C 9.93 g/m*3 12.2 C 0 km/h
582 30-09-2010 20:26:02 12.1 C 9.87 g/m*3 12.1 C 0 km/h
583 30-09-2010 20:38:01 12.1 C 9.87 g/m*3 12.1 C 0 km/h
584 30-09-2010 20:50:02 12.2 C 10.04 g/m*3 12.2 C 0 km/h
585 30-09-2010 21:02:01 12.1 C 9.97 g/m*3 12.1 C 0 km/h
586 30-09-2010 21:14:01 12.1 C 9.97 g/m*3 12.1 C 0 km/h
587 30-09-2010 21:26:02 12.1 C 9.97 g/m*3 12.1 C 0 km/h
588 30-09-2010 21:38:01 12.1 C 9.97 g/m*3 12.1 C 0 km/h
589 30-09-2010 21:50:02 12 C 9.91 g/m*3 12 C 0 km/h
590 30-09-2010 22:02:02 12 C 9.91 g/m*3 12 C 0 km/h
591 30-09-2010 22:14:02 12 C 9.91 g/m*3 12 C 0 km/h
592 30-09-2010 22:26:02 11.9 C 9.96 g/m*3 11.9 C 0 km/h
593 30-09-2010 22:38:02 11.9 C 9.96 g/m*3 11.9 C 0 km/h
594 30-09-2010 22:50:01 12 C 9.91 g/m*3 12 C 0 km/h
595 30-09-2010 23:03:03 12 C 9.91 g/m*3 12 C 0 km/h
596 30-09-2010 23:15:03 11.9 C 9.96 g/m*3 11.9 C 0 km/h
597 30-09-2010 23:27:03 12 C 10.02 g/m*3 12 C 0 km/h
598 30-09-2010 23:39:03 12.1 C 10.08 g/m*3 12.1 C 0 km/h
599 30-09-2010 23:51:03 12 C 10.02 g/m*3 12 C 0 km/h

Legende:
   Min
   Max


Maximal/Minimal-Werte vom 26.09.2010 - 30.09.2010

Sensor Min Max Avg
Temp
(Aussen-T/F)
5.9 °C
27-09-2010  04:59:05
19.7 °C
29-09-2010  15:48:01
11.47 °C
Abs-Feuchte
(Aussen-T/F)
6.21 g/m*3
26-09-2010  16:46:01
10.29 g/m*3
30-09-2010  16:02:01
8.29 g/m*3
Windchill
(Aussen-T/F)
5.9 C
27-09-2010  04:59:05
19.7 C
29-09-2010  15:48:01
11.45 C

Die Daten stammen von einer Davis Vantage Pro 2 Wetter-Station und werden unter Linux mit der Software wview2wettercgi und aufbereitet. Alle Angaben erfolgen ohne Gewähr für ihre Vollständigkeit oder Richtigkeit.
Kontakt: Rainer Krienke krienke@uni-koblenz.de . Meine Webseiten an der Uni Koblenz oder privat.
Version: $Revision: 0.78 $